User: anonymous   Login
Location: Unspecified
(0.0000°N, 0.0000°E)
Time: 09:13:20
(UTC+00:00)
Language:

Nadezhda 4 - Orbit

View from above orbital plane
View from above orbital plane
View from above satellite
View from above satellite

Ground track
Ground track

The orbit data is extracted from the following two-line orbital elements,

1 23179U 94041A   23088.79333703  .00000111  00000-0  96877-4 0  9990
2 23179  82.9506 179.8164 0036325 137.0556 339.2574 13.76625648441792
Epoch (UTC): 29 March 2023 19:02:24
Eccentricity: 0.0036325
inclination: 82.9506°
perigee height: 949 km
apogee height: 1002 km
right ascension of ascending node: 179.8164°
argument of perigee: 137.0556°
revolutions per day: 13.76625648
mean anomaly at epoch: 339.2574°
orbit number at epoch: 44179

The dashed part of the orbit path shows where the satellite is in the earth's shadow,  

DLR